Date String (YYYY-MM-DD hh:mm:ss) UTC,Instrument flags,Ambient pressure (hPa),Sample flow (lpm),Bypass flow (lpm),Sample temperature (°C),Ambient temperature (°C),ASC tube jacket temperature (°C),LED temperature (°C),Box temperature (°C),Sample RH (%),Span deviation,Mass concentration (μg/m³),Mass concentration (μg/m³),Mass concentration (μg/m³)
DateTimeUTC,F1_M11,P_M11,Q1_M11,Q2_M11,T1_M11,T2_M11,T3_M11,T4_M11,T5_M11,U1_M11,ZSPAN_M11,X0_M11,X2_M11,X1_M11
2021-11-25 13:00:00,,0834.7,5.02,0.00,22.0,22.1,00.0,31.0,23.7,12.6,0000.0,0007.65,0004.87,0004.52
2021-11-25 13:01:00,,0834.7,4.99,0.00,21.9,21.9,00.0,31.0,23.5,12.6,0000.0,0007.74,0004.90,0004.55
2021-11-25 13:02:00,,0834.7,4.99,0.00,21.9,21.6,00.0,31.0,23.4,12.7,0000.0,0008.16,0004.92,0004.58
2021-11-25 13:03:00,,0834.7,5.00,0.00,21.8,21.4,00.0,31.0,23.4,12.7,0000.0,0008.20,0004.97,0004.62
2021-11-25 13:04:00,,0834.7,4.99,0.00,21.8,21.2,00.0,31.0,23.3,12.8,0000.0,0008.13,0005.02,0004.69
2021-11-25 13:05:00,,0834.7,5.00,0.00,21.7,21.1,00.0,30.9,23.3,12.9,0000.0,0008.32,0005.13,0004.77
2021-11-25 13:06:00,,0834.7,5.00,0.00,21.7,21.0,00.0,30.9,23.2,12.9,0000.0,0008.41,0005.21,0004.84
2021-11-25 13:07:00,,0834.7,5.00,0.00,21.6,20.8,00.0,30.9,23.2,12.9,0000.0,0008.54,0005.28,0004.89
2021-11-25 13:08:00,,0834.7,5.00,0.00,21.6,20.7,00.0,30.9,23.1,13.0,0000.0,0008.68,0005.39,0004.93
2021-11-25 13:09:00,,0834.7,5.00,0.00,21.6,21.4,00.0,30.9,23.3,12.9,0000.0,0008.57,0005.45,0004.99
2021-11-25 13:10:00,,0834.7,5.01,0.00,21.8,22.3,00.0,30.9,23.6,12.8,0000.0,0008.52,0005.49,0005.04
2021-11-25 13:11:00,,0834.7,4.99,0.00,21.9,23.1,00.0,30.9,23.9,12.7,0000.0,0008.85,0005.54,0005.09
2021-11-25 13:12:00,,0834.8,4.99,0.00,22.0,23.1,00.0,31.0,24.0,12.6,0000.0,0009.41,0005.61,0005.14
2021-11-25 13:13:00,,0834.8,5.01,0.00,22.0,22.7,00.0,31.0,23.8,12.6,0000.0,0009.84,0005.72,0005.18
2021-11-25 13:14:00,,0834.8,5.01,0.00,22.0,22.3,00.0,31.0,23.7,12.6,0000.0,0010.60,0005.78,0005.21
2021-11-25 13:15:00,,0834.9,4.99,0.00,21.9,22.0,00.0,31.0,23.6,12.6,0000.0,0011.01,0005.81,0005.21
2021-11-25 13:16:00,,0834.8,5.00,0.00,21.9,21.8,00.0,31.0,23.6,12.6,0000.0,0011.64,0005.77,0005.17
2021-11-25 13:17:00,,0834.9,5.00,0.00,21.9,21.6,00.0,31.0,23.5,12.6,0000.0,0011.89,0005.73,0005.13
2021-11-25 13:18:00,,0834.9,5.00,0.00,21.9,21.5,00.0,31.0,23.5,12.6,0000.0,0011.85,0005.71,0005.11
2021-11-25 13:19:00,,0834.9,5.00,0.00,21.9,21.4,00.0,30.9,23.5,12.6,0000.0,0011.66,0005.64,0005.09
2021-11-25 13:20:00,,0834.9,5.01,0.00,21.9,21.4,00.0,30.9,23.5,12.6,0000.0,0011.64,0005.62,0005.08
2021-11-25 13:21:00,,0834.8,5.00,0.00,21.9,21.3,00.0,30.9,23.5,12.5,0000.0,0011.87,0005.65,0005.06
2021-11-25 13:22:00,,0834.8,5.00,0.00,21.9,21.3,00.0,30.9,23.5,12.4,0000.0,0011.81,0005.65,0005.03
2021-11-25 13:23:00,,0834.8,4.99,0.00,21.9,21.3,00.0,30.9,23.5,12.3,0000.0,0011.16,0005.58,0004.98
2021-11-25 13:24:00,,0834.8,5.01,0.00,21.9,21.3,00.0,30.9,23.5,12.4,0000.0,0010.93,0005.50,0004.95
2021-11-25 13:25:00,,0834.8,4.98,0.00,21.9,21.2,00.0,30.9,23.5,12.4,0000.0,0010.45,0005.47,0004.95
2021-11-25 13:26:00,,0834.8,5.00,0.00,21.8,21.2,00.0,30.9,23.5,12.4,0000.0,0010.43,0005.46,0004.95
2021-11-25 13:27:00,,0834.8,5.01,0.00,21.8,21.2,00.0,30.9,23.5,12.4,0000.0,0009.75,0005.46,0004.94
2021-11-25 13:28:00,,0834.8,5.00,0.00,21.8,21.2,00.0,30.9,23.5,12.3,0000.0,0009.28,0005.43,0004.92
2021-11-25 13:29:00,,0834.8,5.00,0.00,21.8,21.3,00.0,30.9,23.5,12.3,0000.0,0009.48,0005.43,0004.91
2021-11-25 13:30:00,,0834.8,5.00,0.00,21.9,21.9,00.0,30.9,23.7,12.3,0000.0,0009.57,0005.43,0004.91
2021-11-25 13:31:00,,0834.8,4.99,0.00,22.0,22.7,00.0,31.0,23.9,12.2,0000.0,0009.65,0005.41,0004.88
2021-11-25 13:32:00,,0834.8,5.00,0.00,22.2,23.0,00.0,31.0,24.1,12.1,0000.0,0009.61,0005.35,0004.85
2021-11-25 13:33:00,,0834.8,5.00,0.00,22.2,22.8,00.0,31.0,24.1,12.1,0000.0,0009.35,0005.29,0004.85
2021-11-25 13:34:00,,0834.8,5.00,0.00,22.2,22.6,00.0,31.1,24.1,12.1,0000.0,0009.54,0005.36,0004.88
2021-11-25 13:35:00,,0834.9,5.00,0.00,22.2,22.4,00.0,31.1,24.1,12.0,0000.0,0009.19,0005.37,0004.89
2021-11-25 13:36:00,,0834.9,5.00,0.00,22.2,22.2,00.0,31.1,24.0,12.0,0000.0,0008.75,0005.36,0004.86
2021-11-25 13:37:00,,0834.9,5.00,0.00,22.2,22.0,00.0,31.1,24.0,12.1,0000.0,0008.87,0005.32,0004.83
2021-11-25 13:38:00,,0835.0,4.99,0.00,22.2,21.9,00.0,31.1,23.9,12.1,0000.0,0008.89,0005.28,0004.80
2021-11-25 13:39:00,,0835.0,5.00,0.00,22.2,21.8,00.0,31.1,23.9,12.2,0000.0,0008.82,0005.28,0004.81
2021-11-25 13:40:00,,0835.0,5.02,0.00,22.2,21.7,00.0,31.1,23.9,12.3,0000.0,0008.82,0005.25,0004.81
2021-11-25 13:41:00,,0834.9,5.00,0.00,22.2,21.7,00.0,31.1,23.8,12.2,0000.0,0009.49,0005.23,0004.80
2021-11-25 13:42:00,,0834.9,5.00,0.00,22.1,21.6,00.0,31.1,23.8,12.3,0000.0,0010.04,0005.26,0004.82
2021-11-25 13:43:00,,0834.9,5.01,0.00,22.1,21.5,00.0,31.1,23.8,12.3,0000.0,0010.55,0005.28,0004.84
2021-11-25 13:44:00,,0835.0,5.00,0.00,22.1,21.5,00.0,31.1,23.8,12.3,0000.0,0010.56,0005.29,0004.85
2021-11-25 13:45:00,,0834.9,4.99,0.00,22.1,21.4,00.0,31.1,23.8,12.3,0000.0,0010.45,0005.25,0004.84
2021-11-25 13:46:00,,0834.9,5.01,0.00,22.1,21.4,00.0,31.1,23.8,12.3,0000.0,0010.42,0005.24,0004.83
2021-11-25 13:47:00,,0834.9,4.99,0.00,22.1,21.4,00.0,31.1,23.8,12.3,0000.0,0010.39,0005.25,0004.83
2021-11-25 13:48:00,,0835.0,5.01,0.00,22.0,21.4,00.0,31.1,23.8,12.3,0000.0,0010.54,0005.26,0004.83
2021-11-25 13:49:00,,0834.9,5.00,0.00,22.1,21.9,00.0,31.1,23.9,12.3,0000.0,0010.85,0005.28,0004.83
2021-11-25 13:50:00,,0835.0,5.00,0.00,22.2,22.6,00.0,31.1,24.1,12.2,0000.0,0010.92,0005.28,0004.81
2021-11-25 13:51:00,,0834.9,4.99,0.00,22.3,23.1,00.0,31.2,24.3,12.1,0000.0,0010.63,0005.27,0004.79
2021-11-25 13:52:00,,0834.8,5.01,0.00,22.4,23.0,00.0,31.2,24.3,12.0,0000.0,0009.88,0005.23,0004.77
2021-11-25 13:53:00,,0834.8,5.00,0.00,22.4,22.7,00.0,31.2,24.3,12.0,0000.0,0009.16,0005.18,0004.74
2021-11-25 13:54:00,,0834.8,5.00,0.00,22.4,22.5,00.0,31.2,24.2,11.9,0000.0,0008.63,0005.15,0004.71
2021-11-25 13:55:00,,0834.8,5.00,0.00,22.4,22.3,00.0,31.2,24.2,11.9,0000.0,0008.62,0005.13,0004.68
2021-11-25 13:56:00,,0834.7,5.00,0.00,22.4,22.2,00.0,31.3,24.2,11.9,0000.0,0008.55,0005.10,0004.66
2021-11-25 13:57:00,,0834.7,5.00,0.00,22.4,22.1,00.0,31.3,24.2,11.8,0000.0,0008.55,0005.07,0004.62
2021-11-25 13:58:00,,0834.8,4.99,0.00,22.4,22.0,00.0,31.3,24.1,11.8,0000.0,0008.59,0005.02,0004.61
2021-11-25 13:59:00,,0834.8,5.01,0.00,22.4,21.9,00.0,31.3,24.1,11.8,0000.0,0008.27,0004.99,0004.59
